軌道要素
Epoch 2002 Mar. 27.0 TT = JDT 2452360.5
T 2002 Mar. 22.91126 TT Muraoka
q 2.2900693 (2000.0) P Q
n 0.13286821 Peri. 249.21706 +0.35589712 +0.92386647
a 3.8035458 Node 42.48372 -0.76107214 +0.37393067
e 0.3979120 Incl. 12.02787 -0.54231581 +0.08152667
P 7.42
From 39 observations 1980-1995, mean residual 0".86.
|